Location: Kielce
(50.8833°N, 20.6167°E)
Time: 00:21:28
(UTC+02:00)

SR - Pass Details

Date: 22 April 2021
Orbit: 573 x 882 km, 66.7° (Epoch: 16 May)

Event Time Altitude Azimuth Distance (km) Brightness Sun altitude
Rises 15:31:35 0° 322° (NW) 3,487 ? 37.6°
Reaches altitude 10° 15:34:08 10° 324° (NW) 2,532 ? 37.3°
Maximum altitude 15:40:03 78° 51° (NE) 869 ? 36.5°
Drops below altitude 10° 15:45:36 10° 138° (SE) 2,379 ? 35.7°
Sets 15:47:56 0° 140° (SE) 3,262 ? 35.4°
